Location: Notre Dame Regional High School Observatory
(37.3056°N, 89.6097°W)
Time: 23:15:18
(UTC-05:00)

Okean-O - Visible Passes

Search period start: 23 October 2017 00:00
Search period end: 02 November 2017 00:00
Orbit: 639 x 641 km, 98.2° (Epoch: 23 October)

Date Brightness Start Highest point End Pass type
(mag) Time Alt. Az. Time Alt. Az. Time Alt. Az.
23 Oct 3.0 05:51:32 10° NNE 05:55:57 66° ESE 06:00:20 10° S visible
24 Oct 2.6 06:15:03 10° N 06:19:27 67° WNW 06:23:50 10° SSW visible
25 Oct 5.4 05:03:16 10° NE 05:06:19 18° E 05:09:20 10° SE visible
25 Oct 3.2 06:38:49 10° N 06:42:53 36° WNW 06:46:55 10° SW visible
26 Oct 4.4 05:25:59 10° NNE 05:29:59 32° E 05:33:57 10° SSE visible
27 Oct 3.2 05:49:10 10° NNE 05:53:34 61° E 05:57:56 10° S visible
28 Oct 2.5 06:12:39 10° N 06:17:04 72° WNW 06:21:29 10° SSW visible
29 Oct 5.5 05:01:03 10° NE 05:03:54 17° E 05:06:46 10° SE visible
29 Oct 3.1 06:36:23 10° N 06:40:31 39° WNW 06:44:37 10° SW visible
30 Oct 4.6 05:23:40 10° NE 05:27:34 30° E 05:31:28 10° SSE visible
31 Oct 3.3 05:46:49 10° NNE 05:51:10 56° E 05:55:30 10° S visible
01 Nov 2.5 06:10:15 10° N 06:14:42 78° WNW 06:19:07 10° SSW visible
